owner,sensor,date,latitude,longitude,vertical_datum,wind_speed,wind_to_direction,wind_speed_of_gust,qcFlag 
TABS,ioos:station:wmo:42043:1,2002-07-14T05:39:00Z,28.9818,-94.9186,4.0,0.664830806,344.2911884,1.82,'11111222,11111222,11111222' 
TABS,ioos:station:wmo:42043:1,2002-07-14T06:09:00Z,28.9818,-94.9186,4.0,1.45,136.3974934,3.01,'11111222,11111222,11111222' 
TABS,ioos:station:wmo:42043:1,2002-07-14T06:39:00Z,28.9818,-94.9186,4.0,3.761927697,154.6613381,5.42,'11111222,11111222,11111222' 
TABS,ioos:station:wmo:42043:1,2002-07-14T07:09:00Z,28.9818,-94.9186,4.0,5.314753052,168.6057353,7.35,'11111222,11111222,11111222' 
TABS,ioos:station:wmo:42043:1,2002-07-14T07:39:00Z,28.9818,-94.9186,4.0,6.172795153,175.0747065,8.21,'11111222,11111222,11111222' 
TABS,ioos:station:wmo:42043:1,2002-07-14T08:09:00Z,28.9818,-94.9186,4.0,5.52655408,191.2694524,7.34,'11111222,11111222,11111222' 
TABS,ioos:station:wmo:42043:1,2002-07-14T08:39:00Z,28.9818,-94.9186,4.0,5.984321181,200.6458545,8.41,'11111222,11111222,11111222' 
TABS,ioos:station:wmo:42043:1,2002-07-14T09:09:00Z,28.9818,-94.9186,4.0,6.718965694,209.8084842,8.83,'11111222,11111222,11111222' 
TABS,ioos:station:wmo:42043:1,2002-07-14T09:39:00Z,28.9818,-94.9186,4.0,6.818247575,208.1813801,9.09,'11111222,11111222,11111222' 
TABS,ioos:station:wmo:42043:1,2002-07-14T10:09:00Z,28.9818,-94.9186,4.0,7.561911134,208.4291928,10.17,'11111222,11111222,11111222' 
TABS,ioos:station:wmo:42043:1,2002-07-14T10:39:00Z,28.9818,-94.9186,4.0,7.385174338,219.7262216,10.36,'11111222,11111222,11111222' 
TABS,ioos:station:wmo:42043:1,2002-07-14T11:09:00Z,28.9818,-94.9186,4.0,6.354407919,217.5192365,9.46,'11111222,11111222,11111222' 
TABS,ioos:station:wmo:42043:1,2002-07-14T11:39:00Z,28.9818,-94.9186,4.0,6.478780749,220.994694,8.74,'11111222,11111222,11111222' 
TABS,ioos:station:wmo:42043:1,2002-07-14T12:09:00Z,28.9818,-94.9186,4.0,6.396162912,221.6410915,8.84,'11111222,11111222,11111222' 
TABS,ioos:station:wmo:42043:1,2002-07-14T12:39:00Z,28.9818,-94.9186,4.0,6.349370047,227.6171482,8.86,'11111222,11111222,11111222' 
TABS,ioos:station:wmo:42043:1,2002-07-14T13:09:00Z,28.9818,-94.9186,4.0,5.948487203,234.7871182,7.99,'11111222,11111222,11111222' 
TABS,ioos:station:wmo:42043:1,2002-07-14T13:39:00Z,28.9818,-94.9186,4.0,5.612067355,229.6977892,7.8,'11111222,11111222,11111222' 
TABS,ioos:station:wmo:42043:1,2002-07-14T14:09:00Z,28.9818,-94.9186,4.0,4.814862407,231.154439,7.02,'11111222,11111222,11111222' 
TABS,ioos:station:wmo:42043:1,2002-07-14T14:39:00Z,28.9818,-94.9186,4.0,5.271935129,289.1566483,9.73,'11111222,11111222,11111222' 
TABS,ioos:station:wmo:42043:1,2002-07-14T15:09:00Z,28.9818,-94.9186,4.0,3.616973873,275.552958,7.77,'11111222,11111222,11111222' 
TABS,ioos:station:wmo:42043:1,2002-07-14T15:39:00Z,28.9818,-94.9186,4.0,2.971396978,275.0198419,4.76,'11111222,11111222,11111222' 
TABS,ioos:station:wmo:42043:1,2002-07-14T16:09:00Z,28.9818,-94.9186,4.0,2.330064377,302.7351497,4.84,'11111222,11111222,11111222' 
TABS,ioos:station:wmo:42043:1,2002-07-14T16:39:00Z,28.9818,-94.9186,4.0,3.45774493,338.6292172,6.52,'11111222,11111222,11111222' 
TABS,ioos:station:wmo:42043:1,2002-07-14T17:09:00Z,28.9818,-94.9186,4.0,2.18013761,5.527316767,4.16,'11111222,11111222,11111222' 
TABS,ioos:station:wmo:42043:1,2002-07-14T17:39:00Z,28.9818,-94.9186,4.0,1.263724654,13.26623937,3.53,'11111222,11111222,11111222' 
TABS,ioos:station:wmo:42043:1,2002-07-14T18:09:00Z,28.9818,-94.9186,4.0,1.482228053,52.124684,4.15,'11111222,11111222,11111222' 
TABS,ioos:station:wmo:42043:1,2002-07-14T18:39:00Z,28.9818,-94.9186,4.0,3.106541485,349.0515936,5.95,'11111222,11111222,11111222' 
TABS,ioos:station:wmo:42043:1,2002-07-14T19:09:00Z,28.9818,-94.9186,4.0,3.542612031,32.43369289,7.29,'11111222,11111222,11111222' 
TABS,ioos:station:wmo:42043:1,2002-07-14T19:39:00Z,28.9818,-94.9186,4.0,1.986403786,13.68621427,4.04,'11111222,11111222,11111222' 
TABS,ioos:station:wmo:42043:1,2002-07-14T20:09:00Z,28.9818,-94.9186,4.0,2.990601946,330.7777771,5.1,'11111222,11111222,11111222' 
TABS,ioos:station:wmo:42043:1,2002-07-14T20:39:00Z,28.9818,-94.9186,4.0,3.52150536,97.67030817,6.19,'11111222,11111222,11111222' 
TABS,ioos:station:wmo:42043:1,2002-07-14T21:09:00Z,28.9818,-94.9186,4.0,4.68385525,149.6029606,8.5,'11111222,11111222,11111222' 
TABS,ioos:station:wmo:42043:1,2002-07-14T21:39:00Z,28.9818,-94.9186,4.0,1.094166349,300.7840745,2.63,'11111222,11111222,11111222' 
TABS,ioos:station:wmo:42043:1,2002-07-14T22:09:00Z,28.9818,-94.9186,4.0,1.083743512,355.236159,3.88,'11111222,11111222,11111222' 
TABS,ioos:station:wmo:42043:1,2002-07-14T22:39:00Z,28.9818,-94.9186,4.0,1.912302277,190.5462198,5.81,'11111222,11111222,11111222' 
TABS,ioos:station:wmo:42043:1,2002-07-14T23:09:00Z,28.9818,-94.9186,4.0,1.528463281,112.7067387,3.49,'11111222,11111222,11111222' 
TABS,ioos:station:wmo:42043:1,2002-07-14T23:39:00Z,28.9818,-94.9186,4.0,2.901758088,120.8963797,4.12,'11111222,11111222,11111222' 
TABS,ioos:station:wmo:42043:1,2002-07-15T00:09:00Z,28.9818,-94.9186,4.0,5.128898517,131.5225373,7.76,'11111222,11111222,11111222' 
TABS,ioos:station:wmo:42043:1,2002-07-15T00:39:00Z,28.9818,-94.9186,4.0,4.206114597,140.5958826,6.17,'11111222,11111222,11111222' 
TABS,ioos:station:wmo:42043:1,2002-07-15T01:09:00Z,28.9818,-94.9186,4.0,4.346630879,163.1494966,6.3,'11111222,11111222,11111222' 
TABS,ioos:station:wmo:42043:1,2002-07-15T01:39:00Z,28.9818,-94.9186,4.0,6.322254345,175.1914238,8.35,'11111222,11111222,11111222' 
TABS,ioos:station:wmo:42043:1,2002-07-15T02:09:00Z,28.9818,-94.9186,4.0,7.002063981,166.2021515,9.82,'11111222,11111222,11111222' 
TABS,ioos:station:wmo:42043:1,2002-07-15T02:39:00Z,28.9818,-94.9186,4.0,7.551006555,170.163679,9.96,'11111222,11111222,11111222' 
TABS,ioos:station:wmo:42043:1,2002-07-15T03:09:00Z,28.9818,-94.9186,4.0,7.902569202,173.3878092,10.73,'11111222,11111222,11111222' 
TABS,ioos:station:wmo:42043:1,2002-07-15T03:39:00Z,28.9818,-94.9186,4.0,8.170220315,179.5794422,10.93,'11111222,11111222,11111222' 
TABS,ioos:station:wmo:42043:1,2002-07-15T04:09:00Z,28.9818,-94.9186,4.0,7.719358782,177.1785838,11.08,'11111222,11111222,11111222' 
TABS,ioos:station:wmo:42043:1,2002-07-15T04:39:00Z,28.9818,-94.9186,4.0,7.122274917,181.4483874,10.05,'11111222,11111222,11111222' 
TABS,ioos:station:wmo:42043:1,2002-07-15T05:09:00Z,28.9818,-94.9186,4.0,5.96483864,172.9705247,9.26,'11111222,11111222,11111222' 
TABS,ioos:station:wmo:42043:1,2002-07-15T05:39:00Z,28.9818,-94.9186,4.0,5.68594759,177.3793519,8.42,'11111222,11111222,11111222' 
TABS,ioos:station:wmo:42043:1,2002-07-15T06:09:00Z,28.9818,-94.9186,4.0,5.056026108,168.2458165,7.52,'11111222,11111222,11111222' 
TABS,ioos:station:wmo:42043:1,2002-07-15T06:39:00Z,28.9818,-94.9186,4.0,5.782058457,170.9451799,8.75,'11111222,11111222,11111222' 
TABS,ioos:station:wmo:42043:1,2002-07-15T07:09:00Z,28.9818,-94.9186,4.0,5.987603861,173.5754956,8.19,'11111222,11111222,11111222' 
TABS,ioos:station:wmo:42043:1,2002-07-15T07:39:00Z,28.9818,-94.9186,4.0,5.658489198,165.5710654,8.63,'11111222,11111222,11111222' 
TABS,ioos:station:wmo:42043:1,2002-07-15T08:09:00Z,28.9818,-94.9186,4.0,6.697835471,167.1466829,9.43,'11111222,11111222,11111222' 
TABS,ioos:station:wmo:42043:1,2002-07-15T08:39:00Z,28.9818,-94.9186,4.0,5.596043245,171.8846067,9.04,'11111222,11111222,11111222' 
TABS,ioos:station:wmo:42043:1,2002-07-15T09:09:00Z,28.9818,-94.9186,4.0,5.473024758,172.0181776,8.54,'11111222,11111222,11111222' 
TABS,ioos:station:wmo:42043:1,2002-07-15T09:39:00Z,28.9818,-94.9186,4.0,5.067790446,173.9971363,8.23,'11111222,11111222,11111222' 
TABS,ioos:station:wmo:42043:1,2002-07-15T10:09:00Z,28.9818,-94.9186,4.0,4.199773803,167.4862295,6.71,'11111222,11111222,11111222' 
TABS,ioos:station:wmo:42043:1,2002-07-15T10:39:00Z,28.9818,-94.9186,4.0,3.563663845,173.3937092,6.07,'11111222,11111222,11111222' 
TABS,ioos:station:wmo:42043:1,2002-07-15T11:09:00Z,28.9818,-94.9186,4.0,3.209236669,169.9508854,5.39,'11111222,11111222,11111222' 
TABS,ioos:station:wmo:42043:1,2002-07-15T11:39:00Z,28.9818,-94.9186,4.0,3.043813398,172.8285151,5.0,'11111222,11111222,11111222' 
TABS,ioos:station:wmo:42043:1,2002-07-15T12:09:00Z,28.9818,-94.9186,4.0,3.327461495,170.3114466,5.54,'11111222,11111222,11111222' 
TABS,ioos:station:wmo:42043:1,2002-07-15T12:39:00Z,28.9818,-94.9186,4.0,3.36787767,207.4021282,6.06,'11111222,11111222,11111222' 
TABS,ioos:station:wmo:42043:1,2002-07-15T13:09:00Z,28.9818,-94.9186,4.0,2.979530164,244.983165,7.82,'11111222,11111222,11111222' 
TABS,ioos:station:wmo:42043:1,2002-07-15T16:09:00Z,28.9818,-94.9186,4.0,5.513374647,21.49238366,8.8,'11111222,11111222,11111222' 
TABS,ioos:station:wmo:42043:1,2002-07-15T16:39:00Z,28.9818,-94.9186,4.0,5.419704789,33.10335408,8.66,'11111222,11111222,11111222' 
TABS,ioos:station:wmo:42043:1,2002-07-15T17:09:00Z,28.9818,-94.9186,4.0,7.991226439,32.89433275,12.05,'11111222,11111222,11111222' 
TABS,ioos:station:wmo:42043:1,2002-07-15T17:39:00Z,28.9818,-94.9186,4.0,7.860432558,34.21541166,11.11,'11111222,11111222,11111222' 
TABS,ioos:station:wmo:42043:1,2002-07-15T18:09:00Z,28.9818,-94.9186,4.0,7.944211729,36.45128672,11.09,'11111222,11111222,11111222' 
TABS,ioos:station:wmo:42043:1,2002-07-15T18:39:00Z,28.9818,-94.9186,4.0,7.48425681,52.65512191,10.34,'11111222,11111222,11111222' 
TABS,ioos:station:wmo:42043:1,2002-07-15T19:09:00Z,28.9818,-94.9186,4.0,6.133718285,86.16687236,10.08,'11111222,11111222,11111222' 
TABS,ioos:station:wmo:42043:1,2002-07-15T19:39:00Z,28.9818,-94.9186,4.0,6.44286427,99.19956347,9.96,'11111222,11111222,11111222' 
TABS,ioos:station:wmo:42043:1,2002-07-15T20:09:00Z,28.9818,-94.9186,4.0,3.436568055,98.36628748,6.77,'11111222,11111222,11111222' 
TABS,ioos:station:wmo:42043:1,2002-07-15T20:39:00Z,28.9818,-94.9186,4.0,4.249470555,64.64063599,6.78,'11111222,11111222,11111222' 
TABS,ioos:station:wmo:42043:1,2002-07-15T21:09:00Z,28.9818,-94.9186,4.0,4.813533006,61.99717566,8.03,'11111222,11111222,11111222' 
TABS,ioos:station:wmo:42043:1,2002-07-15T21:39:00Z,28.9818,-94.9186,4.0,5.228546643,57.09982499,8.54,'11111222,11111222,11111222' 
TABS,ioos:station:wmo:42043:1,2002-07-15T22:09:00Z,28.9818,-94.9186,4.0,4.692334174,48.97456357,7.65,'11111222,11111222,11111222' 
TABS,ioos:station:wmo:42043:1,2002-07-15T22:39:00Z,28.9818,-94.9186,4.0,3.912607826,68.08944872,7.32,'11111222,11111222,11111222' 
TABS,ioos:station:wmo:42043:1,2002-07-15T23:09:00Z,28.9818,-94.9186,4.0,4.693527458,83.14712534,7.56,'11111222,11111222,11111222' 
TABS,ioos:station:wmo:42043:1,2002-07-15T23:39:00Z,28.9818,-94.9186,4.0,4.080318615,85.92397633,6.24,'11111222,11111222,11111222' 
TABS,ioos:station:wmo:42043:1,2002-07-16T00:09:00Z,28.9818,-94.9186,4.0,4.761606872,104.9705583,6.97,'11111222,11111222,11111222' 
TABS,ioos:station:wmo:42043:1,2002-07-16T00:39:00Z,28.9818,-94.9186,4.0,5.062459876,100.3558578,7.33,'11111222,11111222,11111222' 
TABS,ioos:station:wmo:42043:1,2002-07-16T01:09:00Z,28.9818,-94.9186,4.0,5.74223824,116.6992781,8.68,'11111222,11111222,11111222' 
TABS,ioos:station:wmo:42043:1,2002-07-16T01:39:00Z,28.9818,-94.9186,4.0,6.558810868,107.938077,9.27,'11111222,11111222,11111222' 
TABS,ioos:station:wmo:42043:1,2002-07-16T02:09:00Z,28.9818,-94.9186,4.0,6.710380019,108.5973309,9.16,'11111222,11111222,11111222' 
TABS,ioos:station:wmo:42043:1,2002-07-16T02:39:00Z,28.9818,-94.9186,4.0,6.498899907,115.6191123,10.01,'11111222,11111222,11111222' 
TABS,ioos:station:wmo:42043:1,2002-07-16T03:09:00Z,28.9818,-94.9186,4.0,5.872350466,124.6646394,9.07,'11111222,11111222,11111222' 
TABS,ioos:station:wmo:42043:1,2002-07-16T03:39:00Z,28.9818,-94.9186,4.0,7.364563802,131.9181421,10.34,'11111222,11111222,11111222' 
TABS,ioos:station:wmo:42043:1,2002-07-16T04:09:00Z,28.9818,-94.9186,4.0,7.229453645,131.0744172,10.55,'11111222,11111222,11111222' 
TABS,ioos:station:wmo:42043:1,2002-07-16T04:39:00Z,28.9818,-94.9186,4.0,9.104202326,161.6250084,16.91,'11111222,11111222,11111222' 
TABS,ioos:station:wmo:42043:1,2002-07-16T05:09:00Z,28.9818,-94.9186,4.0,7.732354105,158.2126117,11.56,'11111222,11111222,11111222' 
TABS,ioos:station:wmo:42043:1,2002-07-16T05:39:00Z,28.9818,-94.9186,4.0,7.364977936,156.8118891,10.9,'11111222,11111222,11111222' 
TABS,ioos:station:wmo:42043:1,2002-07-16T06:09:00Z,28.9818,-94.9186,4.0,7.274702743,170.7450802,10.27,'11111222,11111222,11111222' 
TABS,ioos:station:wmo:42043:1,2002-07-16T06:39:00Z,28.9818,-94.9186,4.0,6.205562021,156.9471558,9.43,'11111222,11111222,11111222' 
TABS,ioos:station:wmo:42043:1,2002-07-16T07:09:00Z,28.9818,-94.9186,4.0,4.172780847,149.6252402,7.07,'11111222,11111222,11111222' 
TABS,ioos:station:wmo:42043:1,2002-07-16T07:39:00Z,28.9818,-94.9186,4.0,4.405280922,154.0168831,7.42,'11111222,11111222,11111222' 
TABS,ioos:station:wmo:42043:1,2002-07-16T08:09:00Z,28.9818,-94.9186,4.0,4.627882885,144.7648507,7.47,'11111222,11111222,11111222' 
TABS,ioos:station:wmo:42043:1,2002-07-16T08:39:00Z,28.9818,-94.9186,4.0,4.765899705,135.0003157,7.14,'11111222,11111222,11111222' 
TABS,ioos:station:wmo:42043:1,2002-07-16T09:09:00Z,28.9818,-94.9186,4.0,4.572318887,126.1935436,7.22,'11111222,11111222,11111222' 
TABS,ioos:station:wmo:42043:1,2002-07-16T09:39:00Z,28.9818,-94.9186,4.0,4.038972642,133.4955222,6.52,'11111222,11111222,11111222' 
TABS,ioos:station:wmo:42043:1,2002-07-16T10:09:00Z,28.9818,-94.9186,4.0,5.078995964,136.5958821,8.13,'11111222,11111222,11111222' 
TABS,ioos:station:wmo:42043:1,2002-07-16T10:39:00Z,28.9818,-94.9186,4.0,5.789386841,141.1704764,8.6,'11111222,11111222,11111222' 
TABS,ioos:station:wmo:42043:1,2002-07-16T11:09:00Z,28.9818,-94.9186,4.0,12.54996414,182.2835163,19.41,'11111222,11111222,11111222' 
TABS,ioos:station:wmo:42043:1,2002-07-16T11:39:00Z,28.9818,-94.9186,4.0,9.816745897,153.957263,13.62,'11111222,11111222,11111222' 
TABS,ioos:station:wmo:42043:1,2002-07-16T12:09:00Z,28.9818,-94.9186,4.0,9.031683121,155.6770677,13.17,'11111222,11111222,11111222' 
TABS,ioos:station:wmo:42043:1,2002-07-16T12:39:00Z,28.9818,-94.9186,4.0,9.156636937,164.4158457,12.84,'11111222,11111222,11111222' 
TABS,ioos:station:wmo:42043:1,2002-07-16T13:09:00Z,28.9818,-94.9186,4.0,7.429683708,154.5733957,11.45,'11111222,11111222,11111222' 
TABS,ioos:station:wmo:42043:1,2002-07-16T13:39:00Z,28.9818,-94.9186,4.0,6.005206075,145.5163375,10.0,'11111222,11111222,11111222' 
TABS,ioos:station:wmo:42043:1,2002-07-16T14:09:00Z,28.9818,-94.9186,4.0,5.014957627,144.2501155,7.65,'11111222,11111222,11111222' 
TABS,ioos:station:wmo:42043:1,2002-07-16T14:39:00Z,28.9818,-94.9186,4.0,4.657563741,139.0921204,7.14,'11111222,11111222,11111222' 
TABS,ioos:station:wmo:42043:1,2002-07-16T15:09:00Z,28.9818,-94.9186,4.0,3.910818329,135.9327122,6.8,'11111222,11111222,11111222' 
TABS,ioos:station:wmo:42043:1,2002-07-16T15:39:00Z,28.9818,-94.9186,4.0,4.198690272,120.1683834,6.81,'11111222,11111222,11111222' 
TABS,ioos:station:wmo:42043:1,2002-07-16T16:09:00Z,28.9818,-94.9186,4.0,4.730507372,141.2648299,7.25,'11111222,11111222,11111222' 
TABS,ioos:station:wmo:42043:1,2002-07-16T16:39:00Z,28.9818,-94.9186,4.0,4.596085291,142.7813437,7.62,'11111222,11111222,11111222' 
TABS,ioos:station:wmo:42043:1,2002-07-16T17:09:00Z,28.9818,-94.9186,4.0,6.847809869,213.5045518,11.18,'11111222,11111222,11111222' 
TABS,ioos:station:wmo:42043:1,2002-07-16T17:39:00Z,28.9818,-94.9186,4.0,3.667424164,168.9966953,6.18,'11111222,11111222,11111222' 
TABS,ioos:station:wmo:42043:1,2002-07-16T18:09:00Z,28.9818,-94.9186,4.0,2.027806697,157.9889787,4.55,'11111222,11111222,11111222' 
TABS,ioos:station:wmo:42043:1,2002-07-16T18:39:00Z,28.9818,-94.9186,4.0,2.224072841,126.4065187,5.16,'11111222,11111222,11111222' 
TABS,ioos:station:wmo:42043:1,2002-07-16T19:09:00Z,28.9818,-94.9186,4.0,1.99812412,84.83112319,4.71,'11111222,11111222,11111222' 
TABS,ioos:station:wmo:42043:1,2002-07-16T19:39:00Z,28.9818,-94.9186,4.0,1.366930869,67.18631032,4.09,'11111222,11111222,11111222' 
TABS,ioos:station:wmo:42043:1,2002-07-16T20:09:00Z,28.9818,-94.9186,4.0,2.117404071,60.89247813,4.54,'11111222,11111222,11111222' 
TABS,ioos:station:wmo:42043:1,2002-07-16T20:39:00Z,28.9818,-94.9186,4.0,2.311752582,87.76840969,5.0,'11111222,11111222,11111222' 
TABS,ioos:station:wmo:42043:1,2002-07-16T21:09:00Z,28.9818,-94.9186,4.0,2.033051893,83.50379243,5.12,'11111222,11111222,11111222' 
TABS,ioos:station:wmo:42043:1,2002-07-16T21:39:00Z,28.9818,-94.9186,4.0,2.659323222,83.08836813,4.48,'11111222,11111222,11111222' 
TABS,ioos:station:wmo:42043:1,2002-07-16T22:09:00Z,28.9818,-94.9186,4.0,2.810640496,91.22362961,4.81,'11111222,11111222,11111222' 
TABS,ioos:station:wmo:42043:1,2002-07-16T22:39:00Z,28.9818,-94.9186,4.0,2.145250568,94.00991308,4.07,'11111222,11111222,11111222' 
TABS,ioos:station:wmo:42043:1,2002-07-16T23:09:00Z,28.9818,-94.9186,4.0,3.320361426,114.5585669,5.29,'11111222,11111222,11111222' 
TABS,ioos:station:wmo:42043:1,2002-07-16T23:39:00Z,28.9818,-94.9186,4.0,3.013702042,105.7890917,5.72,'11111222,11111222,11111222' 
TABS,ioos:station:wmo:42043:1,2002-07-17T00:09:00Z,28.9818,-94.9186,4.0,4.349678149,86.17675103,6.74,'11111222,11111222,11111222' 
TABS,ioos:station:wmo:42043:1,2002-07-17T00:39:00Z,28.9818,-94.9186,4.0,4.220426519,89.18500394,6.18,'11111222,11111222,11111222' 
TABS,ioos:station:wmo:42043:1,2002-07-17T01:09:00Z,28.9818,-94.9186,4.0,5.242146507,88.35988434,7.36,'11111222,11111222,11111222' 
TABS,ioos:station:wmo:42043:1,2002-07-17T01:39:00Z,28.9818,-94.9186,4.0,4.524919889,100.4411489,6.71,'11111222,11111222,11111222' 
TABS,ioos:station:wmo:42043:1,2002-07-17T02:09:00Z,28.9818,-94.9186,4.0,5.608440068,106.0440086,7.78,'11111222,11111222,11111222' 
TABS,ioos:station:wmo:42043:1,2002-07-17T02:39:00Z,28.9818,-94.9186,4.0,6.538317826,116.3302718,9.71,'11111222,11111222,11111222' 
TABS,ioos:station:wmo:42043:1,2002-07-17T03:09:00Z,28.9818,-94.9186,4.0,6.41536437,119.2024247,8.97,'11111222,11111222,11111222' 
TABS,ioos:station:wmo:42043:1,2002-07-17T03:39:00Z,28.9818,-94.9186,4.0,5.349859811,113.9302316,8.21,'11111222,11111222,11111222' 
TABS,ioos:station:wmo:42043:1,2002-07-17T04:09:00Z,28.9818,-94.9186,4.0,4.89509959,121.8072177,7.16,'11111222,11111222,11111222' 
TABS,ioos:station:wmo:42043:1,2002-07-17T04:39:00Z,28.9818,-94.9186,4.0,5.518414627,129.633082,8.39,'11111222,11111222,11111222' 
TABS,ioos:station:wmo:42043:1,2002-07-17T05:09:00Z,28.9818,-94.9186,4.0,5.90437973,135.2061674,9.14,'11111222,11111222,11111222' 
TABS,ioos:station:wmo:42043:1,2002-07-17T05:39:00Z,28.9818,-94.9186,4.0,5.817430704,138.6939349,9.38,'11111222,11111222,11111222' 
TABS,ioos:station:wmo:42043:1,2002-07-17T06:09:00Z,28.9818,-94.9186,4.0,6.184181433,140.18287,8.86,'11111222,11111222,11111222' 
TABS,ioos:station:wmo:42043:1,2002-07-17T19:09:00Z,28.9818,-94.9186,4.0,3.049475365,133.0070722,5.07,'11111222,11111222,11111222' 
TABS,ioos:station:wmo:42043:1,2002-07-17T19:39:00Z,28.9818,-94.9186,4.0,2.468623098,133.523105,5.54,'11111222,11111222,11111222' 
TABS,ioos:station:wmo:42043:1,2002-07-17T20:09:00Z,28.9818,-94.9186,4.0,2.432878953,130.4994439,4.95,'11111222,11111222,11111222' 
TABS,ioos:station:wmo:42043:1,2002-07-17T20:39:00Z,28.9818,-94.9186,4.0,2.48032256,127.7942755,4.83,'11111222,11111222,11111222' 
TABS,ioos:station:wmo:42043:1,2002-07-17T21:09:00Z,28.9818,-94.9186,4.0,2.681976883,123.7496606,4.54,'11111222,11111222,11111222' 
TABS,ioos:station:wmo:42043:1,2002-07-17T21:39:00Z,28.9818,-94.9186,4.0,2.848385508,123.6904097,4.8,'11111222,11111222,11111222' 
TABS,ioos:station:wmo:42043:1,2002-07-17T22:09:00Z,28.9818,-94.9186,4.0,2.773175076,121.2830014,4.63,'11111222,11111222,11111222' 
TABS,ioos:station:wmo:42043:1,2002-07-17T22:39:00Z,28.9818,-94.9186,4.0,2.601922366,140.927806,4.56,'11111222,11111222,11111222' 
TABS,ioos:station:wmo:42043:1,2002-07-17T23:09:00Z,28.9818,-94.9186,4.0,2.325510697,130.8154093,4.42,'11111222,11111222,11111222' 
TABS,ioos:station:wmo:42043:1,2002-07-17T23:39:00Z,28.9818,-94.9186,4.0,2.679178979,138.9350885,4.65,'11111222,11111222,11111222' 
TABS,ioos:station:wmo:42043:1,2002-07-18T00:09:00Z,28.9818,-94.9186,4.0,2.690910627,141.6397707,4.59,'11111222,11111222,11111222' 
TABS,ioos:station:wmo:42043:1,2002-07-18T00:39:00Z,28.9818,-94.9186,4.0,2.773157046,133.2469149,4.49,'11111222,11111222,11111222' 
TABS,ioos:station:wmo:42043:1,2002-07-18T01:09:00Z,28.9818,-94.9186,4.0,2.686335794,140.7409089,4.79,'11111222,11111222,11111222' 
TABS,ioos:station:wmo:42043:1,2002-07-18T01:39:00Z,28.9818,-94.9186,4.0,2.744011662,143.2974413,4.57,'11111222,11111222,11111222' 
TABS,ioos:station:wmo:42043:1,2002-07-18T02:09:00Z,28.9818,-94.9186,4.0,2.390585702,130.4196478,4.27,'11111222,11111222,11111222' 
TABS,ioos:station:wmo:42043:1,2002-07-18T02:39:00Z,28.9818,-94.9186,4.0,3.07353217,138.1655147,4.99,'11111222,11111222,11111222' 
TABS,ioos:station:wmo:42043:1,2002-07-18T03:09:00Z,28.9818,-94.9186,4.0,2.733056897,141.5369341,4.83,'11111222,11111222,11111222' 
TABS,ioos:station:wmo:42043:1,2002-07-18T03:39:00Z,28.9818,-94.9186,4.0,3.110964481,138.7797305,4.94,'11111222,11111222,11111222' 
TABS,ioos:station:wmo:42043:1,2002-07-18T04:09:00Z,28.9818,-94.9186,4.0,3.210763149,133.9908053,5.58,'11111222,11111222,11111222' 
TABS,ioos:station:wmo:42043:1,2002-07-18T04:39:00Z,28.9818,-94.9186,4.0,3.372966054,135.3606609,5.1,'11111222,11111222,11111222' 
TABS,ioos:station:wmo:42043:1,2002-07-18T05:09:00Z,28.9818,-94.9186,4.0,3.379600568,141.3669693,5.51,'11111222,11111222,11111222' 
TABS,ioos:station:wmo:42043:1,2002-07-18T05:39:00Z,28.9818,-94.9186,4.0,3.563818177,135.0003157,5.72,'11111222,11111222,11111222' 
TABS,ioos:station:wmo:42043:1,2002-07-18T06:09:00Z,28.9818,-94.9186,4.0,4.338663389,130.8880965,6.27,'11111222,11111222,11111222' 
TABS,ioos:station:wmo:42043:1,2002-07-18T06:39:00Z,28.9818,-94.9186,4.0,4.745102739,129.5276168,7.17,'11111222,11111222,11111222' 
TABS,ioos:station:wmo:42043:1,2002-07-18T07:09:00Z,28.9818,-94.9186,4.0,4.377590662,128.4148503,6.52,'11111222,11111222,11111222' 
TABS,ioos:station:wmo:42043:1,2002-07-18T07:39:00Z,28.9818,-94.9186,4.0,4.419739811,128.4779271,6.52,'11111222,11111222,11111222' 
TABS,ioos:station:wmo:42043:1,2002-07-18T08:09:00Z,28.9818,-94.9186,4.0,4.9710864,134.5928144,7.66,'11111222,11111222,11111222' 
TABS,ioos:station:wmo:42043:1,2002-07-18T08:39:00Z,28.9818,-94.9186,4.0,4.125106059,137.0632464,6.35,'11111222,11111222,11111222' 
TABS,ioos:station:wmo:42043:1,2002-07-18T09:09:00Z,28.9818,-94.9186,4.0,3.693291215,133.0253863,6.11,'11111222,11111222,11111222' 
TABS,ioos:station:wmo:42043:1,2002-07-18T09:39:00Z,28.9818,-94.9186,4.0,3.276705663,128.0593485,5.14,'11111222,11111222,11111222' 
TABS,ioos:station:wmo:42043:1,2002-07-18T10:09:00Z,28.9818,-94.9186,4.0,3.693291215,133.0253863,6.16,'11111222,11111222,11111222' 
TABS,ioos:station:wmo:42043:1,2002-07-18T10:39:00Z,28.9818,-94.9186,4.0,3.752172704,137.808794,5.96,'11111222,11111222,11111222' 
TABS,ioos:station:wmo:42043:1,2002-07-18T11:09:00Z,28.9818,-94.9186,4.0,3.899551256,137.3905793,6.55,'11111222,11111222,11111222' 
TABS,ioos:station:wmo:42043:1,2002-07-18T11:39:00Z,28.9818,-94.9186,4.0,3.855606308,136.78694,5.9,'11111222,11111222,11111222' 
TABS,ioos:station:wmo:42043:1,2002-07-18T12:09:00Z,28.9818,-94.9186,4.0,3.695416079,130.5007185,5.85,'11111222,11111222,11111222' 
TABS,ioos:station:wmo:42043:1,2002-07-18T12:39:00Z,28.9818,-94.9186,4.0,3.479224051,134.3016229,5.57,'11111222,11111222,11111222' 
TABS,ioos:station:wmo:42043:1,2002-07-18T13:09:00Z,28.9818,-94.9186,4.0,3.814000524,126.9002773,5.84,'11111222,11111222,11111222' 
TABS,ioos:station:wmo:42043:1,2002-07-18T13:39:00Z,28.9818,-94.9186,4.0,4.165345124,134.1248986,6.76,'11111222,11111222,11111222' 
TABS,ioos:station:wmo:42043:1,2002-07-18T14:09:00Z,28.9818,-94.9186,4.0,4.433700486,134.5434223,7.48,'11111222,11111222,11111222' 
TABS,ioos:station:wmo:42043:1,2002-07-18T14:39:00Z,28.9818,-94.9186,4.0,4.42648845,139.5815251,6.5,'11111222,11111222,11111222' 
TABS,ioos:station:wmo:42043:1,2002-07-18T15:09:00Z,28.9818,-94.9186,4.0,4.03386911,139.1217014,6.32,'11111222,11111222,11111222' 